Location: Newark
(43.2858°N, 16.6768°E)
Time: 12:22:33
(UTC+00:00)

N. Korean satellite - Visible Passes

Search period start: 22 September 2019 00:00
Search period end: 02 October 2019 00:00
Orbit: 455 x 509 km, 97.2° (Epoch: 21 September)

Date Brightness Start Highest point End Pass type
(mag) Time Alt. Az. Time Alt. Az. Time Alt. Az.
22 Sep 9.5 04:10:05 10° NE 04:12:49 22° E 04:15:32 10° SSE visible
23 Sep 10.3 03:46:31 10° ENE 03:47:24 11° E 03:48:15 10° ESE visible
26 Sep 9.7 04:02:48 10° NE 04:05:14 18° E 04:07:39 10° SE visible
30 Sep 9.9 03:55:34 10° NE 03:57:37 15° E 03:59:40 10° SE visible
01 Oct 10.7 17:15:12 10° WSW 17:15:55 10° W 17:16:38 10° WNW visible
